Terminal Aerodrome Forecast
Issued by NWS Cleveland, OH

Home | Current Version | Previous Version | Graphics & Text | Print | Product List | Glossary On
Versions: 1 2 3 4 5 6 7 8 9 10 11 12 13 14 15 16 17 18
000
FTUS41 KCLE 241639 AAA
TAFYNG
TAF AMD
KYNG 241639Z 2417/2512 20008KT P6SM VCTS BKN035CB OVC080
      TEMPO 2417/2419 VRB30G40KT 1SM -TSRA OVC015CB
     FM242200 25008KT P6SM VCTS BKN040CB OVC060
     FM250100 20005KT P6SM FEW120 BKN200=

USA.gov is the U.S. government's official web portal to all federal, state and local government web resources and services.